EW2980 Weather Reports


time (UTC)temp
C
wind
direction
speed
KPH
gust
KPH
rain 1hr
cm
rain 24hr
cm
rain mn
cm
humidity
%
barometer
mb
20260507080020 16 16 0.0 1.6 0.00 0.00 0.00 63 1012.1
20260507074526 16 16 0.0 3.2 0.00 0.00 0.00 65 1012.1
20260507073015 17 16 0.0 0.0 0.00 0.00 0.00 65 1012.2
20260507071512 17 16 0.0 0.0 0.00 0.00 0.00 63 1012.4
20260507070013 17 16 0.0 0.0 0.00 0.00 0.00 63 1012.6
20260507064511 17 16 0.0 0.0 0.00 0.00 0.00 65 1012.7
20260507063009 17 16 0.0 0.0 0.00 0.00 0.00 67 1012.9
20260507061509 17 16 0.0 0.0 0.00 0.00 0.00 68 1013.0
20260507060009 17 16 0.0 0.0 0.00 0.00 0.00 67 1013.1
20260507054510 17 16 0.0 3.2 0.00 0.00 0.00 68 1013.1
20260507053008 17 16 0.0 0.0 0.00 0.00 0.00 68 1013.3
20260507051508 18 16 0.0 0.0 0.00 0.00 0.00 68 1013.5
20260507050010 18 16 0.0 0.0 0.00 0.00 0.00 68 1013.5
20260507044507 18 16 0.0 1.6 0.00 0.00 0.00 68 1013.4
20260507043007 18 16 0.0 1.6 0.00 0.00 0.00 68 1013.3
20260507041505 18 16 0.0 3.2 0.00 0.00 0.00 68 1013.3
20260507040005 18 16 0.0 3.2 0.00 0.00 0.00 68 1013.2
20260507034504 18 16 0.0 4.8 0.00 0.00 0.00 68 1013.2
20260507033004 18 332 1.6 6.4 0.00 0.00 0.00 68 1013.2
20260507031503 18 330 1.6 6.4 0.00 0.00 0.00 68 1013.1
20260507030003 19 15 0.0 4.8 0.00 0.00 0.00 68 1013.0
20260507024502 19 348 0.0 6.4 0.00 0.00 0.00 68 1012.7
20260507023001 19 346 1.6 4.8 0.00 0.00 0.00 68 1012.6
20260507021500 20 321 1.6 8.0 0.00 0.00 0.00 68 1012.7
20260507020104 20 360 3.2 8.0 0.00 0.00 0.00 67 1012.7
20260507014609 20 321 4.8 12.9 0.00 0.00 0.00 67 1012.5
20260507013058 21 324 4.8 14.5 0.00 0.00 0.00 66 1012.5
20260507011604 21 316 6.4 16.1 0.00 0.00 0.00 65 1012.3
20260507010058 21 22 8.0 16.1 0.00 0.00 0.00 63 1012.3
20260507004557 22 301 6.4 14.5 0.00 0.00 0.00 65 1012.2
20260507003055 22 355 6.4 14.5 0.00 0.00 0.00 64 1012.2
20260507001614 22 13 3.2 9.7 0.00 0.00 0.00 66 1012.1
20260507000059 -17 0.0 0.0 0.00 0.00 0.00 1012.1
20260506234549 -17 0.0 0.0 0.00 0.00 0.00 1012.0
20260506233044 -17 0.0 0.0 0.00 0.00 0.00 1012.0
20260506231540 -17 0.0 0.0 0.00 0.00 0.00 1012.0
20260506230042 -17 0.0 0.0 0.00 0.00 0.00 1012.0
20260506224538 -17 0.0 0.0 0.00 0.00 0.00 1012.0
20260506223025 24 360 8.0 19.3 0.00 0.00 0.00 57 1012.1